{"data":{"norad_id":60927,"intl_designator":"2024-155D","name":"STARLINK-11243 [DTC]","alt_names":[],"object_type":"PAYLOAD","status":"ACTIVE","operator":null,"country":"US","launch_date":"2024-08-31","launch_site_code":"AFWTR","launch_vehicle":null,"mission":null,"orbit_class":"UNKNOWN","rcs_meters":null,"size_class":null,"mass_kg":null,"dimensions":null,"purposes":["comms"],"wikipedia_slug":null,"has_3d_model":false,"image_url":null,"decayed_at":null,"tle_current":{"epoch":"2026-09-21T20:59:13.105536Z","epoch_age_seconds":69817,"freshness":"FRESH","line1":"1 60927U 24155D   26264.87445724  .00000382  00000+0  80134-5 0  9995","line2":"2 60927  53.1598  94.2651 0001091  90.7942 269.3201 15.69707989119214","mean_motion":15.69707989,"eccentricity":0.0001091,"inclination_deg":53.1598,"raan_deg":94.2651,"arg_perigee_deg":90.7942,"mean_anomaly_deg":269.3201,"bstar":8.0134e-6,"rev_number":11921,"period_min":91.73680774329,"perigee_km":358.99740357514,"apogee_km":360.46760670117,"semimajor_km":6737.8695051382,"source":"CELESTRAK","updated_at":"2026-09-22T09:00:49.288949Z"}}}